Regional Weather Roundup
Issued by NWS

Home | Current Version | Previous Version | Graphics & Text | Print | Product List | Glossary On
Versions: 1 2 3 4 5 6 7 8 9 10 11 12 13 14 15 16 17 18 19 20 21 22 23 24 25 26 27 28 29 30 31 32 33 34 35 36 37 38 39 40 41 42 43 44 45 46 47 48 49 50
000
ASUS45 KSLC 301910
RWRUT

UTAH REGIONAL WEATHER ROUNDUP
NATIONAL WEATHER SERVICE SALT LAKE CITY UT
100 PM MDT THU MAR 30 2017

UTZ001>011-023>025-302000-

NORTHERN UTAH

CITY           SKY/WX    TMP DP  RH WIND       PRES   REMARKS
BRIGHAM CITY   CLOUDY    47  42  84 CALM      29.68F
DUGWAY         LGT RAIN  47  41  81 NE7       29.67R
HILL AFB       LGT RAIN  47  42  81 NE6       29.67F FOG
LOGAN          LGT RAIN  47  41  80 S12       29.68F
OGDEN          CLOUDY    46  42  86 N8        29.66F
SALT LAKE CITY LGT RAIN  50  43  77 N9        29.66F
TOOELE VALLEY  LGT RAIN  46  45  93 W5        29.69F
WENDOVER       NOT AVBL
HEBER CITY     LGT RAIN  50  36  57 SW21G38   29.67R
WEST JORDAN    CLOUDY    55  48  80 S13       29.67F

$$

UTZ011>015-024>027-302000-

CENTRAL/NORTHEAST UTAH

CITY           SKY/WX    TMP DP  RH WIND       PRES   REMARKS
PROVO AIRPORT  LGT RAIN  53  44  71 N7        29.66F
MOAB/CANYONLAN PTSUNNY   65  25  22 MISG      29.68F
DELTA          CLOUDY    55  37  50 S6        29.61F
PRICE          PTSUNNY   54  29  38 SE9       29.73F
RICHFIELD      SUNNY     59  32  36 CALM      29.64F
ROOSEVELT      SUNNY     57  34  41 SE7       29.72F
VERNAL         MOSUNNY   56  32  40 SE7       29.71F

$$

UTZ013>016-019>022-027-302000-

SOUTHERN UTAH

CITY           SKY/WX    TMP DP  RH WIND       PRES   REMARKS
BRYCE CANYON   MOSUNNY   55  28  35 S18G33    29.79F
CEDAR CITY     PTSUNNY   62  27  26 S24G36    29.67F
MILFORD        PTSUNNY   64  32  30 SW22G30   29.61F
ST GEORGE      MOCLDY    69  30  23 SW5       29.63F
HANKSVILLE     PTSUNNY   66  27  22 S10G17    29.70F
KANAB          SUNNY     66  27  22 S17G24    29.76F
BLANDING       SUNNY     58  24  27 S9G17     29.91F

$$

REGIONAL REPORTS     COLORADO/ARIZONA

CITY           SKY/WX    TMP DP  RH WIND       PRES   REMARKS
CRAIG, CO      CLOUDY    54  27  35 W6        29.78F
GRAND JUNCTION CLOUDY    61  27  27 VRB6      29.74F
RIFLE, CO      CLOUDY    59  25  27 MISG      29.78F
MONTROSE, CO   CLOUDY    60  25  26 CALM      29.79F
CORTEZ, CO     CLOUDY    60  21  22 S15G21    29.85F
COLORADO CITY    N/A     70  27  19 SW18G33   29.75F
PAGE, AZ       SUNNY     67  26  21 N8        29.70F
GRAND CANYON   SUNNY     60  24  25 SW23G40   29.85F
KINGMAN, AZ    SUNNY     75  -1   5 SW36G44   29.76F
FLAGSTAFF, AZ  MOSUNNY   55  23  28 SW24G35   29.94F

$$

REGIONAL REPORTS    NEVADA/IDAHO/WYOMING

CITY           SKY/WX    TMP DP  RH WIND       PRES   REMARKS
LAS VEGAS, NV  PTSUNNY   77  28  16 SW32G43   29.57F
ELY, NY        CLOUDY    49  35  58 S22G30    29.60F
ELKO, NV       FLURRIES  36  29  75 NW15G23   29.68R WCI  27
POCATELLO, ID  CLOUDY    51  41  68 SE6       29.64F
BURLEY, ID     RAIN      38  34  85 W30G40    29.62R FOG     WCI  26
FORT BRIDGER,  CLOUDY    47  38  70 N7        29.74F
EVANSTON, WY   CLOUDY    46  32  58 NW8       29.70F
ROCK SPRINGS,  CLOUDY    52  32  46 VRB6      29.72F
KEMMERER, WY   LGT SNOW  34  32  93 N7        29.75F WCI  28

$$



USA.gov is the U.S. government's official web portal to all federal, state and local government web resources and services.